Content
SEND FEEDBACK

Daily
Averages
Monthly
Summary
United States of America

GORDON, WISCONSIN


Home > North America > United States > Wisconsin
Elevation: 1066 feet     Latitude: 46 15N     Longitude: 091 48W

WEATHER
 
SELECT A DAY
Number of Records: 206,786;   Date Range: 7/1/96 - 7/7/14
 
SHARE

PRINT THIS DATA

[ ← Previous Day ]
WEATHER ALMANAC - JANUARY 22, 2013
[ Next Day → ]
[ °C ]   °F
Weather ElementAverageHighLow
Temperature-11.9 °F-2 °F (2:53 pm)-23.1 °F (2:53 am)
Dewpoint-20.9 °F-16.1 °F (3:53 pm)-31 °F (7:53 am)
Humidity65.2 %78 % (10:53 pm)49 % (2:53 pm)
Barometer30.37 in30.42 in (9:53 am)30.30 in (11:53 pm)
Wind Speed2.2 mph8.1 mph (2:53 pm)
Weather ElementAverage
Visibility10 mi
Wind DirectionNE (49.1 °)

Weather ElementTotal
Precipitation---
Heating Degree Days77.6 (Base 65)
Averaged from 23 records on January 22, 2013
WEATHER CONDITIONS BREAKOUT
WIND DIRECTION BREAKOUT
WEATHER BY HOUR - JANUARY 22, 2013
[ °C ]   °F
Local TimeTemperatureDewpointHumidityBarometerVisibilityWind DirectionWind SpeedGust SpeedPrecipitationEventsConditions
1:53 AM-22.0 °F-29.0 °F70 %30.35 in10.0 miCalmClear
2:53 AM-23.1 °F-29.9 °F70 %30.36 in10.0 miCalmClear
3:53 AM-20.9 °F-27.0 °F73 %30.37 in10.0 miCalmClear
4:53 AM-18.9 °F-26.0 °F70 %30.38 in10.0 miCalmClear
5:53 AM-20.0 °F-26.0 °F74 %30.40 in10.0 miCalmClear
6:53 AM-20.0 °F-27.0 °F70 %30.40 in10.0 miCalmClear
7:53 AM-23.1 °F-31.0 °F67 %30.41 in10.0 miCalmClear
8:53 AM-17.0 °F-23.1 °F74 %30.40 in10.0 miWSW (250°)4.6 mphClear
9:53 AM-13.0 °F-20.0 °F71 %30.42 in10.0 miCalmClear
10:53 AM-9.0 °F-18.9 °F62 %30.42 in10.0 miVariable3.5 mphClear
11:53 AM-7.1 °F-18.0 °F59 %30.39 in10.0 miSouth (190°)3.5 mphClear
12:53 PM-4.0 °F-17.0 °F54 %30.38 in10.0 miVariable4.6 mphClear
1:53 PM-4.0 °F-17.0 °F54 %30.37 in10.0 miVariable4.6 mphClear
2:53 PM-2.0 °F-17.0 °F49 %30.36 in10.0 miSW (230°)8.1 mphClear
3:53 PM-2.0 °F-16.1 °F51 %30.37 in10.0 miSW (230°)6.9 mphClear
4:53 PM-4.0 °F-16.1 °F56 %30.36 in10.0 miVariable4.6 mphClear
5:53 PM-5.1 °F-16.1 °F59 %30.37 in10.0 miVariable4.6 mphClear
6:53 PM-6.0 °F-16.1 °F62 %30.35 in10.0 miSW (230°)4.6 mphClear
7:53 PM-7.1 °F-17.0 °F62 %30.34 in10.0 miCalmClear
8:53 PM-9.9 °F-17.0 °F71 %30.33 in10.0 miCalmClear
9:53 PM-8.0 °F-16.1 °F68 %30.32 in10.0 miCalmClear
10:53 PM-13.0 °F-18.0 °F78 %30.32 in10.0 miCalmClear
11:53 PM-15.0 °F-20.9 °F75 %30.30 in10.0 miCalmClear
Hourly data recorded from KHYR, located miles away from Gordon, Wisconsin







STORIES FROM OUR PARTNERS